Simultaneous Nadir Overpasses (SNOs) Predictions

Prediction of SNOs between METOP-B and NOAA-19 Satellite Orbit:

Table of predicted SNOs for the next 14.0 days since TLE Epoch: 3/18/2023
Index Date (METOP-B) Time (METOP-B) Lat,Lon (METOP-B) SZA (METOP-B ) Date (NOAA-19) Time (NOAA-19) Lat,Lon (NOAA-19) SZA (NOAA-19 ) Distance(km) Time Diff (sec)
1 03/24/2023 17:50:11 -80.93, 127.23 99.15 03/24/2023 17:49:09 -80.93, 127.29 99.16 1.05 62
2 03/24/2023 18:40:50 80.94, -65.29 80.87 03/24/2023 18:40:10 80.93, -65.36 80.84 1.44 40
3 03/24/2023 19:31:31 -80.94, 102.07 99.15 03/24/2023 19:31:07 -80.93, 101.91 99.18 3.02 24
4 03/24/2023 20:22:12 80.93, -90.81 80.82 03/24/2023 20:22:09 80.93, -90.75 80.82 1.07 3
5 03/24/2023 21:12:53 -80.93, 76.55 99.20 03/24/2023 21:13:06 -80.93, 76.52 99.20 0.56 13
6 03/24/2023 22:03:33 80.94,-115.96 80.81 03/24/2023 22:04:08 80.93,-116.13 80.81 3.09 35
7 03/24/2023 22:54:14 -80.94, 51.40 99.20 03/24/2023 22:55:04 -80.93, 51.52 99.18 2.18 50



Historial Predications of SNOs between METOP-B and NOAA-19
